Weather History for Page, AZ

Change the Weather History Date:

Thursday, December 5, 2013

  Actual Average Record
Temperature  
Mean Temperature 26 °F -  
Max Temperature 32 °F 48 °F 66 °F (1958)
Min Temperature 19 °F 30 °F 12 °F (1968)
Degree Days  
Heating Degree Days 40    
Moisture  
Dew Point 9 °F    
Average Humidity 49    
Maximum Humidity 68    
Minimum Humidity 24    
Precipitation  
Precipitation 0.00 in - - ()
Sea Level Pressure  
Sea Level Pressure 30.01 in    
Wind  
Wind Speed 2 mph (NW)    
Max Wind Speed 7 mph    
Max Gust Speed -    
Visibility 9 miles    
Events      
Averages and records for this station are not official NWS values.
T = Trace of Precipitation, MM = Missing Value Source: NWS Daily Summary

Daily Weather History Graph

Daily Weather History Graph

Search for Another Location

Airport:

Trip Planner

Search our weather history database for the weather conditions in past years. The results will help you decide how hot, cold, wet, or windy it might be!

Date:

Astronomy

Dec. 05, 2013 Rise Set
Actual Time 7:24 AM MST 5:08 PM MST
Civil Twilight 6:55 AM MST 5:37 PM MST
Nautical Twilight 6:23 AM MST 6:09 PM MST
Astronomical Twilight 5:51 AM MST 6:41 PM MST
Moon 9:49 AM MST (12/5) 8:31 PM MST (12/5)
Length of Visible Light 10h 42m
Length of Day
9h 44m
Waxing Crescent, 11% of the Moon is Illuminated
Dec 5
Waxing Crescent
Dec 9
First Quarter
Dec 17
Full
Dec 25
Last Quarter
Jan 1
New

Hourly Weather History & Observations

Time (MST) Temp. Windchill Dew Point Humidity Pressure Visibility Wind Dir Wind Speed Gust Speed Precip Events Conditions
12:53 AM 21.9 °F 17.2 °F 7.0 °F 53% 29.99 in 6.0 mi SSW 3.5 mph - N/A   Haze
1:53 AM 21.9 °F - 6.1 °F 51% 30.01 in 9.0 mi Calm Calm - N/A   Clear
2:53 AM 21.9 °F - 8.1 °F 55% 30.01 in 10.0 mi Calm Calm - N/A   Clear
3:53 AM 19.9 °F 14.9 °F 10.9 °F 68% 30.01 in 10.0 mi SSE 3.5 mph - N/A   Clear
4:53 AM 19.9 °F - 10.0 °F 65% 30.01 in 10.0 mi Calm Calm - N/A   Clear
5:53 AM 19.0 °F - 10.0 °F 68% 30.01 in 10.0 mi Calm Calm - N/A   Clear
6:53 AM 19.0 °F - 9.0 °F 65% 30.01 in 8.0 mi Calm Calm - N/A   Clear
7:53 AM 19.9 °F - 9.0 °F 62% 30.01 in 4.0 mi Calm Calm - N/A   Haze
8:53 AM 24.1 °F - 8.1 °F 51% 30.02 in 10.0 mi Calm Calm - N/A   Clear
9:53 AM 26.1 °F - 9.0 °F 49% 30.03 in 10.0 mi Calm Calm - N/A   Clear
10:53 AM 28.0 °F 24.2 °F 10.0 °F 47% 30.03 in 10.0 mi NNE 3.5 mph - N/A   Clear
11:53 AM 28.9 °F 25.2 °F 10.9 °F 47% 30.00 in 10.0 mi Variable 3.5 mph - N/A   Clear
12:53 PM 30.9 °F 26.2 °F 10.0 °F 42% 29.98 in 10.0 mi Variable 4.6 mph - N/A   Clear
1:53 PM 30.9 °F 27.5 °F 10.0 °F 42% 29.96 in 10.0 mi ENE 3.5 mph - N/A   Clear
2:53 PM 30.9 °F - 10.0 °F 42% 29.96 in 10.0 mi Calm Calm - N/A   Clear
3:53 PM 30.9 °F 26.2 °F 10.9 °F 43% 29.97 in 10.0 mi East 4.6 mph - N/A   Clear
4:53 PM 30.0 °F - 10.9 °F 45% 29.98 in 10.0 mi Calm Calm - N/A   Clear
5:53 PM 28.0 °F - 12.9 °F 53% 30.00 in 10.0 mi Calm Calm - N/A   Clear
6:53 PM 27.0 °F - 12.0 °F 53% 30.01 in 6.0 mi Calm Calm - N/A   Haze
7:53 PM 26.1 °F - 12.9 °F 58% 30.03 in 6.0 mi Calm Calm - N/A   Haze
8:53 PM 26.1 °F 21.9 °F 12.0 °F 55% 30.03 in 6.0 mi WNW 3.5 mph - N/A   Haze
9:53 PM 27.0 °F 19.5 °F 5.0 °F 39% 30.04 in 10.0 mi West 6.9 mph - N/A   Clear
10:53 PM 26.1 °F 19.4 °F 3.9 °F 39% 30.06 in 10.0 mi NW 5.8 mph - N/A   Clear
11:53 PM 25.0 °F 19.3 °F 1.9 °F 37% 30.07 in 10.0 mi WNW 4.6 mph - N/A   Clear